Wind_Speed
54 53 52 51 51 52 51 48 45 42 41 40 38 36 34 31 29 27 24 22 20 19 17 16 15 14 12 11 10 10 9 8 7 6 5 4 3 3 3 3 3 3 4 5 5 6 6 7 8
54 54 54 54 53 53 52 49 46 44 43 41 40 38 35 33 31 28 26 24 22 20 18 16 15 14 13 12 11 10 9 8 7 7 6 4 3 3 3 3 3 4 4 5 6 6 7 7 8
55 55 55 56 55 54 52 50 47 45 44 43 41 40 38 35 33 30 28 26 24 22 20 18 16 15 14 12 11 10 9 9 8 7 6 4 3 3 3 3 4 4 5 5 6 6 7 8 9
55 56 56 57 55 54 52 50 49 47 45 44 43 42 40 37 34 32 30 27 25 23 21 19 18 16 14 13 12 11 10 9 8 7 6 5 4 4 4 4 4 5 5 6 6 7 7 8 9
55 56 57 57 55 54 52 51 50 49 47 45 44 43 41 38 36 33 32 29 27 25 22 21 19 17 16 14 13 12 11 10 9 8 7 6 5 4 4 4 5 5 6 6 7 7 8 9 10
55 56 56 56 55 54 53 53 51 50 49 47 46 44 42 40 37 35 33 31 29 26 24 22 20 19 17 16 14 13 12 11 10 9 8 7 6 6 5 5 6 6 6 7 7 8 9 10 11
56 55 54 54 54 54 54 53 53 51 50 49 47 46 44 42 39 37 35 33 31 28 26 23 22 20 19 17 16 15 14 13 11 10 9 8 7 7 7 7 7 7 7 8 8 9 10 11 12
56 53 53 54 54 54 53 53 53 52 51 50 49 48 46 44 41 39 37 35 32 30 27 25 23 22 20 19 17 16 15 14 13 11 10 9 8 8 8 8 8 8 8 9 9 11 12 13 14
56 55 54 53 52 52 53 53 53 53 52 52 50 49 47 45 43 41 39 37 34 31 29 26 25 24 22 21 19 18 16 15 14 13 12 11 10 10 10 10 10 10 10 11 11 12 13 14 15
57 55 52 50 50 52 53 54 54 54 53 52 52 50 48 47 45 43 41 39 36 33 31 29 27 25 24 22 21 20 18 17 16 15 13 12 12 12 11 11 11 11 12 12 13 14 14 15 16
55 54 52 52 51 52 53 54 55 56 55 53 52 51 50 48 47 45 43 41 39 36 34 32 29 28 26 24 23 22 20 19 18 17 15 15 14 14 13 13 13 13 14 14 15 15 16 17 18
54 53 54 53 52 52 53 54 56 57 57 55 53 53 51 50 48 47 45 43 41 39 36 34 32 30 28 27 25 24 22 21 20 19 18 17 16 16 16 16 16 16 16 16 17 17 18 19 20
53 53 54 55 54 53 53 54 55 56 57 57 55 54 53 52 50 49 47 45 43 41 39 36 34 32 31 29 28 26 25 24 23 21 20 19 18 18 18 18 18 18 18 18 19 19 20 21 22
52 52 53 54 55 54 54 54 55 55 57 58 57 56 54 53 51 50 48 46 44 42 41 39 37 35 33 32 30 29 28 26 25 24 23 22 21 21 21 20 20 20 20 21 21 22 22 23 24
51 52 53 54 54 55 54 54 55 53 55 58 58 57 56 54 53 50 49 47 46 44 43 41 39 37 36 35 34 32 31 29 28 27 26 25 24 24 23 23 23 23 23 23 24 24 25 25 26
50 52 53 53 53 53 54 53 52 54 55 56 58 58 57 56 54 52 50 48 47 45 44 43 41 40 39 38 37 36 34 33 31 30 29 28 27 27 26 26 26 26 26 26 26 27 27 28 28
50 50 51 52 52 51 52 51 52 53 55 55 56 57 57 56 55 53 52 50 48 46 45 43 43 42 41 40 40 39 38 36 35 33 32 32 31 30 30 29 29 29 29 29 29 29 30 30 31
46 48 49 50 50 50 51 51 51 51 53 55 56 57 57 57 55 54 52 51 50 48 47 45 44 44 44 43 42 42 41 39 38 37 36 35 34 34 33 33 33 32 32 32 32 32 32 33 33
42 45 46 48 48 49 50 50 50 50 51 53 55 56 57 57 56 55 53 51 50 49 48 48 47 46 46 45 45 44 44 42 41 40 39 39 37 37 36 36 35 35 34 34 34 34 35 35 35
39 41 44 45 46 47 49 49 49 50 49 50 53 54 56 56 56 55 54 53 51 50 49 49 48 47 47 47 47 47 46 45 44 43 43 42 40 40 39 38 38 38 37 37 37 37 37 37 37
37 37 40 42 44 46 47 48 48 49 49 49 50 53 54 54 55 55 54 53 53 52 51 50 49 48 48 49 48 48 48 47 47 46 45 44 43 43 42 41 41 40 40 39 39 39 39 39 39
34 35 35 38 41 44 46 47 47 47 49 48 47 50 52 53 54 55 55 54 52 52 53 52 51 50 50 51 51 50 49 49 49 48 47 47 46 45 45 44 43 43 42 42 41 41 41 41 41
32 33 34 35 38 41 43 44 45 45 46 46 46 46 49 51 52 54 55 55 54 53 52 52 52 52 51 51 52 51 51 51 51 50 49 49 48 47 47 47 46 45 44 43 42 42 43 42 42
29 31 32 33 36 39 41 42 42 42 42 43 45 44 45 48 50 52 54 55 54 53 53 53 53 53 52 52 52 52 52 52 52 52 52 51 50 49 49 48 47 46 46 45 44 44 44 44 43
28 28 29 32 35 38 39 40 40 39 39 40 42 43 43 45 47 49 50 52 52 52 52 52 53 53 52 52 52 52 53 53 53 52 53 52 52 51 50 49 49 48 47 46 46 46 45 45 45
26 27 28 29 32 34 35 38 38 36 37 38 39 41 42 43 44 45 46 48 49 50 51 52 51 52 52 52 52 52 53 53 54 53 53 52 52 51 51 50 49 49 48 48 48 47 47 46 46
25 26 26 27 28 30 32 35 34 33 34 36 37 38 40 41 41 43 44 46 48 49 50 51 51 51 51 51 52 52 53 53 53 53 53 53 52 51 51 50 50 50 50 49 49 48 47 46 45
26 26 27 27 27 28 30 31 32 31 32 33 35 35 36 38 39 41 42 44 46 47 49 50 50 51 51 51 52 52 52 53 53 53 52 52 52 52 51 51 50 50 49 48 48 48 47 47 46
27 27 27 27 27 28 28 28 30 30 30 31 32 33 34 35 37 38 39 41 43 44 45 47 48 49 50 51 51 52 52 53 53 53 53 52 51 51 51 51 50 49 49 49 49 48 47 46 46
25 26 26 27 26 26 27 26 26 27 29 29 30 32 32 33 34 35 36 38 40 42 43 44 45 47 48 49 50 51 51 52 52 52 52 51 51 51 51 51 50 50 49 49 48 47 46 45 44
Wind_Direction
218 217 217 216 215 216 216 215 213 213 214 215 217 218 218 218 219 222 221 222 223 224 225 224 223 223 222 221 223 225 223 222 221 221 223 229 242 264 287 306 319 323 328 334 336 336 337 339 341
218 218 217 216 216 216 216 215 213 214 214 215 217 219 219 220 221 223 223 223 224 224 225 225 224 224 224 223 224 225 225 224 223 222 225 232 245 263 285 303 316 322 326 331 333 334 335 338 341
217 217 217 217 216 216 216 215 215 214 215 215 217 218 220 221 222 223 225 225 226 226 226 227 227 226 225 225 226 228 227 226 224 222 224 229 243 262 280 298 312 320 324 329 331 333 335 338 339
217 217 218 218 217 216 216 215 215 215 215 215 216 219 221 222 223 224 226 227 227 227 228 228 228 226 226 226 227 227 227 225 224 223 225 232 245 260 275 292 307 316 320 324 329 331 334 335 337
216 217 218 218 217 216 216 215 215 215 215 216 216 218 221 222 223 225 227 228 228 228 228 228 227 226 225 225 225 224 224 224 224 225 229 235 244 258 273 290 304 311 316 320 325 328 331 333 334
215 217 218 218 216 216 215 215 215 215 215 216 216 218 220 221 223 225 227 228 229 229 228 228 227 226 225 225 224 223 224 225 225 228 231 237 246 257 273 289 300 306 312 317 322 325 327 329 331
215 217 218 218 216 215 215 215 216 216 215 215 216 217 219 221 222 224 227 229 230 230 229 228 227 226 225 225 225 224 225 226 228 231 235 242 252 262 275 288 296 302 309 315 321 324 325 326 328
213 216 217 216 215 214 214 215 215 216 216 216 217 217 218 220 221 223 226 228 230 231 230 229 228 227 227 227 226 226 227 229 231 234 239 246 255 265 276 284 292 299 306 311 317 321 323 324 325
213 214 215 215 215 214 214 214 214 216 217 216 217 218 218 219 221 223 225 228 230 232 232 232 230 228 228 228 228 228 230 231 234 238 242 248 257 266 275 282 290 297 302 307 311 315 318 320 322
212 213 213 213 214 213 213 214 214 215 216 217 217 218 219 219 221 223 225 227 230 232 233 233 231 230 230 229 230 231 232 234 237 240 244 250 257 265 272 279 286 292 297 301 305 308 311 314 316
212 212 211 212 212 212 212 213 213 214 215 217 217 217 218 219 221 222 224 226 228 230 231 232 232 232 231 231 232 233 234 236 239 242 247 252 258 264 271 276 282 287 292 296 300 303 305 309 311
211 210 211 211 211 212 212 213 213 214 215 216 218 218 218 219 221 222 224 226 228 229 231 231 232 232 232 232 233 235 237 239 242 245 249 253 259 264 269 274 279 283 288 292 296 299 301 304 306
211 211 211 212 211 212 212 213 214 215 215 215 217 218 218 219 221 222 224 225 227 229 230 231 232 233 233 233 235 237 239 242 245 247 250 254 258 262 268 272 276 280 284 288 291 294 297 300 302
210 211 212 212 212 213 213 213 214 215 216 216 217 219 220 220 221 222 224 226 228 229 231 232 233 234 234 235 236 238 240 243 246 249 251 254 258 262 267 271 274 278 281 285 288 290 293 296 298
210 211 212 213 212 213 214 214 215 215 217 218 218 220 221 221 222 222 224 225 227 229 231 232 233 233 234 235 237 238 241 244 247 250 253 256 259 262 266 269 273 276 279 282 285 288 290 293 295
210 211 213 213 213 212 214 214 215 217 219 219 219 220 221 223 223 223 224 226 227 229 230 232 233 234 235 236 237 239 242 245 249 252 254 257 260 263 266 269 272 275 278 281 284 286 288 290 292
210 211 213 214 214 214 215 214 215 218 220 220 221 221 222 223 224 225 225 226 228 229 230 232 233 234 235 236 238 240 242 245 248 252 255 257 260 263 266 269 272 275 277 280 282 284 286 288 290
210 211 212 214 214 215 216 216 217 218 220 221 222 222 223 224 225 226 226 227 229 230 232 232 234 234 235 237 239 241 243 245 248 251 254 257 260 263 266 269 271 274 276 279 281 283 285 287 289
209 211 213 214 215 216 217 217 217 219 220 221 223 224 223 224 226 227 228 229 229 231 233 235 235 236 238 239 240 242 243 246 248 250 254 256 260 263 266 268 271 273 276 278 280 282 284 286 288
206 210 213 214 215 217 218 219 219 220 221 222 223 224 224 225 226 228 229 230 231 232 234 235 237 238 240 240 241 242 243 246 249 251 254 256 259 263 265 268 270 272 275 277 279 281 283 285 287
204 208 212 215 215 218 219 220 220 220 221 223 224 225 226 225 226 227 229 231 232 233 235 237 238 239 241 241 243 243 245 247 249 251 253 256 258 261 264 267 269 272 274 276 278 280 282 284 286
204 207 210 214 216 218 220 221 221 222 222 223 225 226 227 227 227 228 229 231 232 234 235 237 239 241 242 242 244 244 246 247 249 251 253 255 258 261 263 266 268 271 273 275 277 279 281 283 285
205 208 211 213 217 219 219 222 221 223 224 224 225 226 227 228 228 229 230 231 232 234 236 238 240 242 243 244 245 246 248 248 250 251 253 255 258 261 264 266 267 269 271 273 276 278 280 281 283
203 208 212 216 219 221 220 223 221 223 224 224 226 227 228 227 228 229 230 232 233 234 236 239 241 242 244 245 246 247 248 249 251 252 253 255 258 261 263 264 266 267 269 271 274 276 278 281 283
202 205 209 216 220 223 221 224 223 222 224 225 226 228 229 230 229 229 230 231 233 235 237 239 241 243 245 246 248 249 250 251 252 253 254 256 257 259 261 262 263 266 268 270 272 275 277 280 282
202 204 209 215 221 223 222 225 224 223 224 226 228 229 229 230 232 232 232 233 235 236 237 239 241 243 245 247 249 250 251 252 253 254 255 256 257 259 260 261 263 265 267 269 271 274 277 279 281
204 206 210 216 221 224 224 224 225 223 224 226 228 230 231 231 232 233 234 234 236 237 239 241 242 244 246 247 248 250 251 252 253 255 256 257 258 259 260 262 264 265 267 269 271 274 277 279 281
209 209 213 218 222 226 225 225 224 223 226 228 230 232 233 233 234 234 234 235 237 238 240 242 244 246 247 249 250 251 252 254 254 255 257 258 259 260 261 263 264 266 268 270 271 274 276 278 280
212 215 219 222 225 226 227 227 226 226 226 229 231 232 233 234 235 236 236 237 237 239 241 242 244 246 247 248 250 252 253 254 255 256 257 259 259 260 261 263 264 266 268 270 272 274 276 277 279
218 220 223 226 228 229 229 227 225 226 227 229 232 233 234 235 236 237 239 240 240 241 243 244 246 247 248 249 251 252 253 254 255 256 258 259 260 261 262 263 265 267 268 270 272 273 274 276 277
Height
5793 5800 5806 5812 5818 5823 5829 5836 5843 5848 5852 5857 5861 5865 5869 5874 5878 5882 5883 5884 5886 5888 5889 5891 5893 5894 5895 5897 5898 5899 5899 5900 5901 5901 5901 5901 5902 5902 5901 5901 5901 5901 5900 5899 5899 5898 5897 5897 5896
5785 5792 5798 5804 5809 5817 5824 5831 5838 5843 5848 5852 5857 5861 5865 5869 5873 5877 5879 5881 5883 5885 5887 5889 5891 5892 5894 5895 5896 5897 5898 5899 5899 5900 5900 5900 5901 5901 5900 5900 5900 5900 5899 5898 5898 5897 5896 5896 5895
5776 5783 5790 5795 5802 5812 5820 5827 5833 5838 5843 5848 5852 5856 5860 5865 5869 5873 5876 5878 5881 5883 5885 5887 5889 5890 5892 5893 5895 5896 5897 5897 5898 5899 5899 5899 5899 5899 5899 5899 5899 5899 5898 5898 5897 5896 5895 5895 5894
5768 5774 5781 5789 5797 5807 5813 5821 5827 5832 5837 5842 5847 5852 5856 5862 5866 5869 5872 5875 5878 5880 5882 5884 5886 5888 5890 5891 5893 5894 5895 5896 5896 5897 5898 5898 5898 5898 5898 5898 5898 5897 5897 5896 5896 5895 5894 5894 5893
5758 5765 5772 5781 5792 5800 5807 5814 5820 5826 5832 5837 5842 5847 5852 5857 5861 5865 5868 5872 5874 5877 5880 5882 5884 5886 5888 5889 5891 5892 5893 5894 5895 5896 5896 5897 5897 5897 5897 5897 5896 5896 5896 5895 5895 5894 5893 5892 5891
5750 5757 5765 5775 5786 5794 5800 5807 5813 5819 5826 5831 5837 5842 5847 5852 5857 5861 5864 5868 5871 5874 5877 5879 5881 5883 5885 5887 5889 5890 5891 5892 5893 5894 5894 5895 5895 5895 5896 5895 5895 5895 5894 5894 5893 5892 5892 5891 5890
5743 5751 5760 5771 5779 5786 5793 5799 5806 5813 5819 5825 5831 5836 5842 5847 5852 5856 5860 5863 5867 5870 5873 5876 5878 5881 5883 5884 5886 5888 5889 5890 5891 5892 5893 5893 5894 5894 5894 5894 5893 5893 5893 5892 5891 5891 5890 5889 5888
5735 5744 5752 5761 5769 5779 5786 5792 5799 5806 5812 5819 5825 5830 5836 5842 5847 5852 5856 5859 5863 5866 5870 5873 5875 5878 5880 5882 5884 5885 5887 5888 5889 5890 5890 5891 5891 5892 5892 5892 5892 5891 5891 5890 5889 5889 5888 5887 5886
5727 5735 5743 5755 5764 5773 5778 5784 5791 5798 5805 5811 5817 5824 5831 5836 5842 5847 5851 5855 5859 5862 5866 5869 5872 5874 5877 5879 5880 5882 5884 5885 5886 5887 5888 5888 5889 5889 5889 5890 5889 5889 5889 5888 5887 5887 5886 5884 5883
5717 5727 5740 5750 5756 5763 5769 5776 5783 5790 5797 5804 5811 5818 5824 5830 5836 5841 5846 5851 5855 5858 5862 5865 5868 5870 5873 5875 5877 5879 5881 5882 5883 5884 5885 5886 5886 5887 5887 5887 5887 5886 5886 5885 5885 5884 5883 5882 5880
5710 5722 5732 5739 5747 5754 5760 5767 5774 5781 5789 5797 5804 5811 5817 5824 5830 5835 5840 5845 5849 5853 5857 5860 5863 5866 5869 5871 5873 5875 5877 5879 5880 5881 5882 5883 5883 5884 5884 5884 5884 5884 5883 5883 5882 5881 5880 5879 5877
5705 5715 5722 5731 5738 5745 5752 5759 5766 5773 5783 5790 5796 5803 5810 5817 5823 5829 5834 5839 5844 5848 5852 5856 5859 5862 5864 5867 5869 5871 5873 5875 5876 5878 5879 5879 5880 5881 5881 5881 5881 5880 5880 5880 5879 5878 5877 5875 5874
5698 5707 5715 5722 5730 5737 5744 5752 5759 5767 5775 5782 5789 5796 5803 5809 5816 5822 5827 5833 5838 5842 5846 5850 5854 5857 5860 5863 5865 5867 5869 5871 5872 5874 5875 5876 5876 5877 5877 5877 5877 5877 5877 5876 5875 5874 5873 5872 5870
5692 5700 5707 5714 5722 5729 5737 5744 5752 5760 5767 5774 5781 5788 5795 5802 5809 5815 5821 5827 5832 5837 5841 5845 5849 5852 5855 5858 5860 5862 5864 5866 5868 5869 5870 5871 5872 5872 5873 5873 5873 5873 5872 5872 5871 5870 5869 5868 5866
5684 5692 5699 5706 5714 5722 5730 5737 5746 5755 5760 5766 5774 5781 5788 5795 5802 5808 5814 5820 5825 5830 5834 5838 5842 5846 5849 5852 5854 5856 5859 5861 5862 5864 5865 5866 5867 5868 5868 5868 5868 5868 5868 5867 5867 5866 5864 5863 5862
5676 5684 5692 5700 5707 5715 5723 5732 5741 5746 5752 5759 5766 5774 5781 5788 5795 5801 5807 5813 5818 5823 5828 5832 5836 5839 5843 5846 5848 5850 5853 5855 5857 5858 5860 5861 5862 5862 5863 5863 5863 5863 5863 5862 5861 5860 5859 5858 5856
5668 5677 5686 5695 5701 5708 5716 5726 5732 5738 5745 5752 5759 5766 5773 5780 5787 5794 5800 5806 5811 5816 5821 5825 5829 5833 5836 5839 5841 5844 5846 5849 5851 5852 5854 5855 5856 5856 5857 5857 5857 5857 5857 5856 5856 5855 5854 5852 5851
5665 5673 5681 5689 5696 5703 5710 5719 5725 5731 5738 5745 5751 5758 5765 5773 5780 5786 5792 5798 5804 5809 5813 5818 5822 5825 5828 5831 5834 5837 5840 5842 5844 5846 5847 5848 5849 5850 5851 5851 5851 5851 5851 5850 5850 5849 5847 5846 5844
5661 5668 5675 5683 5690 5697 5704 5711 5717 5723 5730 5737 5744 5750 5758 5765 5772 5778 5784 5790 5796 5801 5806 5810 5814 5818 5821 5824 5827 5829 5832 5834 5836 5838 5840 5841 5842 5843 5844 5844 5844 5844 5844 5843 5843 5842 5841 5839 5837
5656 5663 5670 5677 5684 5690 5697 5704 5710 5717 5724 5730 5736 5743 5750 5757 5764 5770 5776 5782 5788 5793 5798 5802 5806 5810 5813 5816 5819 5821 5824 5826 5828 5830 5832 5833 5835 5836 5836 5837 5837 5837 5837 5836 5835 5834 5833 5832 5830
5653 5659 5666 5672 5678 5684 5691 5697 5704 5711 5717 5723 5729 5736 5742 5749 5756 5762 5768 5774 5780 5785 5790 5794 5797 5801 5805 5808 5810 5813 5815 5818 5820 5822 5824 5825 5827 5828 5828 5829 5829 5829 5829 5828 5828 5827 5826 5824 5823
5650 5655 5661 5667 5673 5678 5685 5691 5698 5704 5710 5717 5723 5729 5735 5741 5747 5753 5759 5765 5771 5776 5780 5785 5789 5792 5796 5799 5802 5804 5807 5809 5811 5813 5815 5816 5817 5819 5820 5820 5821 5821 5820 5820 5819 5818 5817 5816 5815
5647 5652 5658 5663 5668 5674 5679 5685 5693 5697 5704 5711 5717 5722 5727 5733 5738 5744 5750 5756 5761 5766 5771 5775 5779 5783 5787 5790 5793 5795 5798 5800 5802 5803 5805 5807 5808 5809 5810 5811 5811 5812 5811 5811 5811 5810 5808 5807 5806
5644 5650 5655 5659 5663 5669 5674 5680 5687 5692 5699 5705 5709 5714 5719 5724 5729 5735 5740 5746 5751 5756 5761 5765 5769 5773 5777 5780 5783 5786 5788 5790 5792 5794 5795 5797 5799 5800 5801 5801 5802 5802 5802 5802 5801 5800 5799 5798 5796
5641 5647 5652 5654 5658 5664 5670 5674 5682 5688 5693 5697 5702 5706 5711 5716 5721 5726 5731 5736 5742 5747 5751 5755 5759 5763 5767 5770 5773 5776 5778 5780 5782 5784 5786 5787 5789 5790 5791 5791 5792 5792 5792 5792 5792 5791 5790 5788 5787
5639 5644 5649 5652 5655 5660 5664 5668 5677 5682 5686 5690 5694 5699 5703 5708 5713 5718 5723 5727 5732 5737 5741 5745 5749 5753 5756 5759 5762 5765 5768 5770 5772 5774 5775 5777 5778 5779 5780 5781 5782 5782 5782 5782 5781 5781 5780 5778 5777
5636 5640 5645 5649 5651 5656 5659 5665 5671 5676 5680 5684 5688 5692 5696 5701 5705 5710 5714 5719 5723 5728 5732 5736 5740 5743 5746 5749 5752 5754 5757 5759 5761 5763 5764 5766 5768 5769 5769 5770 5771 5771 5771 5771 5771 5770 5770 5768 5767
5634 5637 5641 5645 5648 5651 5656 5660 5665 5670 5674 5678 5681 5685 5689 5693 5697 5702 5706 5710 5715 5719 5723 5726 5730 5733 5736 5739 5742 5744 5746 5748 5750 5752 5754 5755 5756 5758 5758 5759 5760 5760 5760 5760 5760 5760 5759 5758 5756
5632 5635 5638 5641 5644 5648 5651 5658 5659 5664 5668 5672 5675 5679 5682 5686 5690 5694 5698 5702 5706 5710 5714 5717 5720 5723 5726 5728 5731 5733 5735 5737 5739 5741 5742 5744 5745 5746 5747 5748 5749 5749 5749 5749 5749 5749 5748 5747 5746
5629 5632 5635 5638 5641 5643 5646 5654 5654 5658 5662 5665 5669 5672 5676 5679 5683 5687 5690 5694 5697 5701 5704 5707 5710 5713 5715 5718 5720 5722 5724 5726 5728 5730 5731 5732 5734 5735 5736 5737 5737 5738 5738 5738 5738 5737 5737 5736 5735